Tracking 35237 objects as of 5-Sep-2026
HD Live streaming from Space Station
objects crossing your sky now

USA 485

Track USA 485 now!
10-day predictions


NORAD ID: 62756
Int'l Code: 2025-014X
Launch date: January 21, 2025
Source: United States (US)
Launch site: AIR FORCE EASTERN TEST RANGE (AFETR)
Your satellite tracking list
Your tracking list is empty




NASA's NSSDC Master Catalog

Two Line Element Set (TLE):
1 62756U 25014X   26248.17798580  .00162985  00000-0  92699-3 0  9994
2 62756  43.0006 344.6451 0001837 265.3979  94.6681 15.77726471 93393
Source of the keplerian elements: AFSPC